| time (UTC) | temp F | wind direction | speed MPH | gust MPH | rain 1hr in | rain 24hr in | rain mn in | humidity % | barometer mb |
| 20260507141935 | 66 | 329 | 2.0 | 9.0 | 0.00 | 0.00 | 0.00 | 83 | 1014.9 |
| 20260507141436 | 66 | 327 | 1.0 | 10.0 | 0.00 | 0.00 | 0.00 | 83 | 1014.9 |
| 20260507140936 | 66 | 42 | 2.0 | 10.0 | 0.00 | 0.00 | 0.00 | 83 | 1014.9 |
| 20260507140433 | 67 | 44 | 3.0 | 10.0 | 0.00 | 0.00 | 0.00 | 83 | 1015.1 |
| 20260507135934 | 67 | 30 | 2.0 | 10.0 | 0.00 | 0.00 | 0.00 | 83 | 1015.0 |
| 20260507135435 | 67 | 56 | 2.0 | 5.0 | 0.00 | 0.00 | 0.00 | 83 | 1014.9 |
| 20260507134933 | 67 | 40 | 2.0 | 4.0 | 0.00 | 0.00 | 0.00 | 83 | 1015.0 |
| 20260507134434 | 67 | 38 | 1.0 | 8.0 | 0.00 | 0.00 | 0.00 | 83 | 1015.2 |
| 20260507133934 | 67 | 5 | 2.0 | 8.0 | 0.00 | 0.00 | 0.00 | 83 | 1015.2 |
| 20260507133433 | 67 | 39 | 2.0 | 6.0 | 0.00 | 0.00 | 0.00 | 82 | 1015.4 |
| 20260507132936 | 67 | 355 | 3.0 | 6.0 | 0.00 | 0.00 | 0.00 | 82 | 1015.3 |
| 20260507132433 | 67 | 337 | 3.0 | 9.0 | 0.00 | 0.00 | 0.00 | 82 | 1015.5 |
| 20260507131936 | 67 | 50 | 2.0 | 9.0 | 0.00 | 0.00 | 0.00 | 82 | 1015.5 |
| 20260507131704 | 67 | 314 | 3.0 | 9.0 | 0.00 | 0.00 | 0.00 | 82 | 1015.6 |
| 20260507130932 | 67 | 34 | 3.0 | 9.0 | 0.00 | 0.00 | 0.00 | 82 | 1015.4 |
| 20260507130432 | 67 | 335 | 3.0 | 9.0 | 0.00 | 0.00 | 0.00 | 82 | 1015.4 |
| 20260507130202 | 67 | 343 | 2.0 | 8.0 | 0.00 | 0.00 | 0.00 | 82 | 1015.3 |
| 20260507125429 | 67 | 29 | 2.0 | 7.0 | 0.00 | 0.00 | 0.00 | 83 | 1015.4 |
| 20260507124930 | 68 | 39 | 3.0 | 7.0 | 0.00 | 0.00 | 0.00 | 83 | 1015.3 |
| 20260507124431 | 68 | 317 | 3.0 | 7.0 | 0.00 | 0.00 | 0.00 | 83 | 1015.2 |
| 20260507123931 | 68 | 330 | 3.0 | 10.0 | 0.00 | 0.00 | 0.00 | 83 | 1015.1 |
| 20260507123428 | 68 | 10 | 4.0 | 10.0 | 0.00 | 0.00 | 0.00 | 83 | 1014.9 |
| 20260507122928 | 68 | 18 | 3.0 | 9.0 | 0.00 | 0.00 | 0.00 | 83 | 1014.8 |
| 20260507122429 | 68 | 347 | 2.0 | 7.0 | 0.00 | 0.00 | 0.00 | 83 | 1014.4 |
| 20260507122159 | 68 | 0 | 2.0 | 7.0 | 0.00 | 0.00 | 0.00 | 83 | 1014.3 |
| 20260507121658 | 68 | 321 | 2.0 | 8.0 | 0.00 | 0.00 | 0.00 | 83 | 1014.4 |
| 20260507120928 | 68 | 9 | 3.0 | 8.0 | 0.00 | 0.00 | 0.00 | 83 | 1014.4 |
| 20260507120428 | 68 | 328 | 2.0 | 8.0 | 0.00 | 0.00 | 0.00 | 84 | 1014.4 |
| 20260507115927 | 69 | 37 | 2.0 | 8.0 | 0.00 | 0.00 | 0.00 | 84 | 1014.2 |
| 20260507115428 | 69 | 328 | 2.0 | 8.0 | 0.00 | 0.00 | 0.00 | 83 | 1014.1 |
| 20260507114925 | 69 | 20 | 2.0 | 8.0 | 0.00 | 0.00 | 0.00 | 83 | 1014.1 |
| 20260507114426 | 69 | 48 | 2.0 | 8.0 | 0.00 | 0.00 | 0.00 | 83 | 1014.1 |
| 20260507113925 | 69 | 58 | 1.0 | 4.0 | 0.00 | 0.00 | 0.00 | 83 | 1013.7 |
| 20260507113425 | 69 | 140 | 0.0 | 2.0 | 0.00 | 0.00 | 0.00 | 83 | 1013.6 |
| 20260507113155 | 69 | 140 | 0.0 | 3.0 | 0.00 | 0.00 | 0.00 | 83 | 1013.3 |
| 20260507112419 | 69 | 141 | 2.0 | 5.0 | 0.00 | 0.00 | 0.00 | 83 | 1013.6 |
| 20260507111917 | 69 | 20 | 2.0 | 5.0 | 0.00 | 0.00 | 0.00 | 83 | 1013.3 |
| 20260507111415 | 69 | 75 | 2.0 | 5.0 | 0.00 | 0.00 | 0.00 | 83 | 1013.3 |
| 20260507110914 | 69 | 38 | 2.0 | 5.0 | 0.00 | 0.00 | 0.00 | 83 | 1013.3 |
| 20260507110415 | 69 | 0 | 2.0 | 5.0 | 0.00 | 0.00 | 0.00 | 83 | 1013.5 |
| 20260507105914 | 69 | 0 | 2.0 | 4.0 | 0.00 | 0.00 | 0.00 | 83 | 1013.3 |
| 20260507105413 | 69 | 323 | 1.0 | 3.0 | 0.00 | 0.00 | 0.00 | 83 | 1013.2 |
| 20260507104913 | 69 | 11 | 1.0 | 6.0 | 0.00 | 0.00 | 0.00 | 83 | 1013.1 |
| 20260507104412 | 69 | 18 | 1.0 | 6.0 | 0.00 | 0.00 | 0.00 | 83 | 1013.2 |
| 20260507103910 | 69 | 19 | 1.0 | 7.0 | 0.00 | 0.00 | 0.00 | 83 | 1013.2 |
| 20260507103409 | 69 | 325 | 1.0 | 7.0 | 0.00 | 0.00 | 0.00 | 83 | 1013.3 |
| 20260507102908 | 69 | 28 | 1.0 | 6.0 | 0.00 | 0.00 | 0.00 | 83 | 1013.2 |
| 20260507102406 | 69 | 14 | 1.0 | 6.0 | 0.00 | 0.00 | 0.00 | 83 | 1013.2 |
| 20260507102135 | 69 | 344 | 3.0 | 6.0 | 0.00 | 0.00 | 0.00 | 83 | 1013.1 |
| 20260507101402 | 69 | 0 | 2.0 | 6.0 | 0.00 | 0.00 | 0.00 | 83 | 1013.0 |
| 20260507100901 | 69 | 63 | 2.0 | 7.0 | 0.00 | 0.00 | 0.00 | 82 | 1013.0 |
| 20260507100401 | 69 | 350 | 3.0 | 7.0 | 0.00 | 0.00 | 0.00 | 82 | 1013.0 |
| 20260507095900 | 69 | 0 | 2.0 | 6.0 | 0.00 | 0.00 | 0.00 | 82 | 1012.8 |
| 20260507095359 | 69 | 55 | 1.0 | 5.0 | 0.00 | 0.00 | 0.00 | 82 | 1012.9 |
| 20260507094856 | 69 | 36 | 2.0 | 5.0 | 0.00 | 0.00 | 0.00 | 82 | 1012.7 |
| 20260507094357 | 69 | 0 | 1.0 | 5.0 | 0.00 | 0.00 | 0.00 | 82 | 1012.6 |
| 20260507094125 | 69 | 23 | 1.0 | 5.0 | 0.00 | 0.00 | 0.00 | 82 | 1012.7 |
| 20260507093353 | 69 | 313 | 2.0 | 5.0 | 0.00 | 0.00 | 0.00 | 82 | 1012.3 |
| 20260507092853 | 69 | 0 | 2.0 | 5.0 | 0.00 | 0.00 | 0.00 | 81 | 1012.2 |
| 20260507092625 | 69 | 0 | 2.0 | 9.0 | 0.00 | 0.00 | 0.00 | 81 | 1012.4 |
| 20260507091852 | 70 | 0 | 2.0 | 9.0 | 0.00 | 0.00 | 0.00 | 81 | 1012.5 |
| 20260507091352 | 70 | 0 | 2.0 | 9.0 | 0.00 | 0.00 | 0.00 | 81 | 1012.4 |
| 20260507090852 | 70 | 0 | 3.0 | 9.0 | 0.00 | 0.00 | 0.00 | 81 | 1012.3 |
| 20260507090350 | 70 | 0 | 2.0 | 8.0 | 0.00 | 0.00 | 0.00 | 81 | 1012.4 |
| 20260507085851 | 70 | 0 | 2.0 | 5.0 | 0.00 | 0.00 | 0.00 | 81 | 1012.6 |
| 20260507085351 | 70 | 0 | 2.0 | 5.0 | 0.00 | 0.00 | 0.00 | 81 | 1012.3 |
| 20260507084850 | 70 | 0 | 2.0 | 8.0 | 0.00 | 0.00 | 0.00 | 81 | 1012.4 |
| 20260507084351 | 70 | 0 | 3.0 | 8.0 | 0.00 | 0.00 | 0.00 | 81 | 1012.5 |
| 20260507084123 | 70 | 0 | 2.0 | 5.0 | 0.00 | 0.00 | 0.00 | 81 | 1012.5 |
| 20260507083347 | 70 | 0 | 2.0 | 4.0 | 0.00 | 0.00 | 0.00 | 81 | 1012.7 |
| 20260507082844 | 70 | 0 | 1.0 | 5.0 | 0.00 | 0.00 | 0.00 | 81 | 1012.4 |
| 20260507082344 | 70 | 0 | 1.0 | 5.0 | 0.00 | 0.00 | 0.00 | 81 | 1012.4 |
| 20260507081847 | 70 | 0 | 2.0 | 5.0 | 0.00 | 0.00 | 0.00 | 81 | 1012.4 |
| 20260507081345 | 70 | 0 | 2.0 | 5.0 | 0.00 | 0.00 | 0.00 | 81 | 1012.4 |
| 20260507080844 | 70 | 0 | 1.0 | 6.0 | 0.00 | 0.00 | 0.00 | 81 | 1012.5 |
| 20260507080344 | 70 | 0 | 1.0 | 6.0 | 0.00 | 0.00 | 0.00 | 80 | 1012.6 |
| 20260507080231 | 70 | 0 | 2.0 | 8.0 | 0.00 | 0.00 | 0.00 | 80 | 1012.8 |
| 20260507080119 | 70 | 0 | 2.0 | 8.0 | 0.00 | 0.00 | 0.00 | 80 | 1012.5 |
| 20260507074840 | 70 | 0 | 2.0 | 8.0 | 0.00 | 0.00 | 0.00 | 80 | 1012.8 |
| 20260507074611 | 70 | 0 | 2.0 | 8.0 | 0.00 | 0.00 | 0.00 | 80 | 1012.8 |
| 20260507073837 | 71 | 0 | 2.0 | 10.0 | 0.00 | 0.00 | 0.00 | 80 | 1012.6 |
| 20260507073334 | 71 | 0 | 3.0 | 10.0 | 0.00 | 0.00 | 0.00 | 80 | 1012.6 |
| 20260507072836 | 71 | 0 | 2.0 | 8.0 | 0.00 | 0.00 | 0.00 | 80 | 1012.4 |
| 20260507072334 | 71 | 0 | 2.0 | 8.0 | 0.00 | 0.00 | 0.00 | 80 | 1012.5 |
| 20260507071831 | 71 | 0 | 2.0 | 8.0 | 0.00 | 0.00 | 0.00 | 80 | 1012.8 |
| 20260507071603 | 71 | 0 | 1.0 | 8.0 | 0.00 | 0.00 | 0.00 | 80 | 1013.0 |
| 20260507070828 | 71 | 0 | 2.0 | 9.0 | 0.00 | 0.00 | 0.00 | 80 | 1013.0 |
| 20260507070327 | 71 | 0 | 2.0 | 9.0 | 0.00 | 0.00 | 0.00 | 80 | 1012.8 |
| 20260507065827 | 71 | 0 | 2.0 | 6.0 | 0.00 | 0.00 | 0.00 | 80 | 1012.8 |
| 20260507065327 | 71 | 0 | 2.0 | 6.0 | 0.00 | 0.00 | 0.00 | 80 | 1013.0 |
| 20260507064828 | 71 | 0 | 2.0 | 6.0 | 0.00 | 0.00 | 0.00 | 80 | 1012.9 |
| 20260507064328 | 71 | 0 | 2.0 | 8.0 | 0.00 | 0.00 | 0.00 | 79 | 1012.7 |
| 20260507063829 | 72 | 0 | 3.0 | 8.0 | 0.00 | 0.00 | 0.00 | 79 | 1012.7 |
| 20260507063323 | 72 | 0 | 3.0 | 6.0 | 0.00 | 0.00 | 0.00 | 80 | 1012.9 |
| 20260507062823 | 72 | 0 | 3.0 | 6.0 | 0.00 | 0.00 | 0.00 | 80 | 1012.9 |
| 20260507062324 | 72 | 0 | 3.0 | 6.0 | 0.00 | 0.00 | 0.00 | 80 | 1012.7 |
| 20260507061824 | 72 | 0 | 3.0 | 8.0 | 0.00 | 0.00 | 0.00 | 80 | 1012.7 |
| 20260507061556 | 72 | 0 | 2.0 | 8.0 | 0.00 | 0.00 | 0.00 | 80 | 1012.7 |
| 20260507060822 | 72 | 0 | 2.0 | 9.0 | 0.00 | 0.00 | 0.00 | 80 | 1012.7 |
| 20260507060321 | 73 | 0 | 2.0 | 9.0 | 0.00 | 0.00 | 0.00 | 80 | 1012.5 |
| 20260507060054 | 73 | 0 | 2.0 | 9.0 | 0.00 | 0.00 | 0.00 | 80 | 1012.4 |
| 20260507055321 | 73 | 0 | 2.0 | 9.0 | 0.00 | 0.00 | 0.00 | 80 | 1012.7 |
| 20260507054822 | 73 | 0 | 3.0 | 9.0 | 0.00 | 0.00 | 0.00 | 79 | 1012.6 |
| 20260507054320 | 73 | 0 | 3.0 | 9.0 | 0.00 | 0.00 | 0.00 | 80 | 1012.3 |
| 20260507054049 | 73 | 0 | 3.0 | 8.0 | 0.00 | 0.00 | 0.00 | 80 | 1012.0 |
| 20260507053320 | 73 | 0 | 3.0 | 9.0 | 0.00 | 0.00 | 0.00 | 80 | 1012.1 |
| 20260507052829 | 73 | 0 | 2.0 | 11.0 | 0.00 | 0.00 | 0.00 | 79 | 1012.1 |
| 20260507052824 | 73 | 0 | 3.0 | 9.0 | 0.00 | 0.00 | 0.00 | 79 | 1012.0 |
| 20260507051818 | 74 | 0 | 3.0 | 11.0 | 0.00 | 0.00 | 0.00 | 79 | 1012.2 |
| 20260507051317 | 74 | 0 | 3.0 | 10.0 | 0.00 | 0.00 | 0.00 | 80 | 1012.3 |
| 20260507050816 | 74 | 0 | 3.0 | 6.0 | 0.00 | 0.00 | 0.00 | 80 | 1012.4 |
| 20260507050315 | 74 | 0 | 2.0 | 5.0 | 0.00 | 0.00 | 0.00 | 80 | 1012.4 |
| 20260507045811 | 74 | 0 | 2.0 | 5.0 | 0.00 | 0.00 | 0.00 | 80 | 1012.3 |
| 20260507045310 | 74 | 0 | 2.0 | 5.0 | 0.00 | 0.00 | 0.00 | 79 | 1012.3 |
| 20260507044809 | 74 | 0 | 2.0 | 5.0 | 0.00 | 0.00 | 0.00 | 79 | 1012.3 |
| 20260507044306 | 74 | 0 | 2.0 | 6.0 | 0.00 | 0.00 | 0.00 | 79 | 1012.2 |
| 20260507043806 | 74 | 0 | 3.0 | 8.0 | 0.00 | 0.00 | 0.00 | 79 | 1012.2 |
| 20260507043304 | 75 | 0 | 3.0 | 8.0 | 0.00 | 0.00 | 0.00 | 79 | 1012.2 |
| 20260507042801 | 75 | 0 | 2.0 | 6.0 | 0.00 | 0.00 | 0.00 | 79 | 1012.2 |
| 20260507042530 | 75 | 0 | 2.0 | 6.0 | 0.00 | 0.00 | 0.00 | 79 | 1012.2 |
| 20260507041758 | 75 | 0 | 3.0 | 6.0 | 0.00 | 0.00 | 0.00 | 79 | 1012.2 |
| 20260507041257 | 75 | 0 | 2.0 | 8.0 | 0.00 | 0.00 | 0.00 | 79 | 1012.3 |
| 20260507040757 | 75 | 0 | 2.0 | 8.0 | 0.00 | 0.00 | 0.00 | 80 | 1012.3 |
| 20260507040528 | 76 | 0 | 2.0 | 6.0 | 0.00 | 0.00 | 0.00 | 80 | 1012.4 |
| 20260507035753 | 76 | 0 | 3.0 | 6.0 | 0.00 | 0.00 | 0.00 | 80 | 1012.3 |
| 20260507035252 | 76 | 0 | 3.0 | 9.0 | 0.00 | 0.00 | 0.00 | 80 | 1012.3 |
| 20260507034754 | 76 | 0 | 3.0 | 9.0 | 0.00 | 0.00 | 0.00 | 80 | 1012.2 |
| 20260507034251 | 76 | 0 | 3.0 | 6.0 | 0.00 | 0.00 | 0.00 | 80 | 1012.1 |
| 20260507033753 | 76 | 0 | 3.0 | 6.0 | 0.00 | 0.00 | 0.00 | 80 | 1012.0 |
| 20260507033524 | 76 | 0 | 3.0 | 10.0 | 0.00 | 0.00 | 0.00 | 80 | 1011.9 |
| 20260507032753 | 77 | 33 | 2.0 | 10.0 | 0.00 | 0.00 | 0.00 | 80 | 1011.8 |
| 20260507032252 | 77 | 5 | 2.0 | 10.0 | 0.00 | 0.00 | 0.00 | 80 | 1011.7 |
| 20260507031752 | 77 | 5 | 2.0 | 10.0 | 0.00 | 0.00 | 0.00 | 80 | 1011.5 |
| 20260507031251 | 77 | 246 | 2.0 | 9.0 | 0.00 | 0.00 | 0.00 | 80 | 1011.4 |
| 20260507030752 | 77 | 37 | 2.0 | 5.0 | 0.00 | 0.00 | 0.00 | 80 | 1011.3 |
| 20260507030522 | 77 | 42 | 2.0 | 6.0 | 0.00 | 0.00 | 0.00 | 80 | 1011.2 |
| 20260507025752 | 78 | 350 | 3.0 | 9.0 | 0.00 | 0.00 | 0.00 | 80 | 1011.1 |
| 20260507025254 | 78 | 41 | 2.0 | 9.0 | 0.00 | 0.00 | 0.00 | 81 | 1011.0 |
| 20260507024750 | 78 | 329 | 2.0 | 9.0 | 0.00 | 0.00 | 0.00 | 81 | 1011.0 |
| 20260507024243 | 78 | 293 | 3.0 | 9.0 | 0.00 | 0.00 | 0.00 | 81 | 1010.7 |
| 20260507023744 | 78 | 321 | 2.0 | 7.0 | 0.00 | 0.00 | 0.00 | 81 | 1010.4 |
| 20260507023241 | 78 | 317 | 2.0 | 6.0 | 0.00 | 0.00 | 0.00 | 81 | 1010.4 |
| 20260507022744 | 79 | 313 | 2.0 | 5.0 | 0.00 | 0.00 | 0.00 | 81 | 1010.3 |
| 20260507022510 | 79 | 336 | 2.0 | 5.0 | 0.00 | 0.00 | 0.00 | 80 | 1010.3 |
| 20260507021737 | 79 | 58 | 2.0 | 5.0 | 0.00 | 0.00 | 0.00 | 80 | 1010.2 |
| 20260507021507 | 79 | 9 | 2.0 | 5.0 | 0.00 | 0.00 | 0.00 | 80 | 1010.1 |
| 20260507020735 | 80 | 339 | 2.0 | 5.0 | 0.00 | 0.00 | 0.00 | 80 | 1010.1 |
| 20260507020234 | 80 | 350 | 2.0 | 5.0 | 0.00 | 0.00 | 0.00 | 80 | 1010.0 |
| 20260507015735 | 80 | 15 | 2.0 | 6.0 | 0.00 | 0.00 | 0.00 | 79 | 1010.0 |
| 20260507015229 | 80 | 0 | 2.0 | 6.0 | 0.00 | 0.00 | 0.00 | 79 | 1010.0 |
| 20260507014958 | 81 | 30 | 2.0 | 8.0 | 0.00 | 0.00 | 0.00 | 80 | 1009.9 |
| 20260507014224 | 81 | 347 | 3.0 | 8.0 | 0.00 | 0.00 | 0.00 | 80 | 1009.8 |
| 20260507013723 | 82 | 30 | 2.0 | 7.0 | 0.00 | 0.00 | 0.00 | 80 | 1009.8 |
| 20260507013219 | 82 | 13 | 3.0 | 8.0 | 0.00 | 0.00 | 0.00 | 81 | 1009.6 |
| 20260507012719 | 83 | 322 | 3.0 | 8.0 | 0.00 | 0.00 | 0.00 | 82 | 1009.4 |
| 20260507012450 | 83 | 346 | 1.0 | 8.0 | 0.00 | 0.00 | 0.00 | 82 | 1009.2 |
| 20260507011716 | 83 | 254 | 0.0 | 2.0 | 0.00 | 0.00 | 0.00 | 82 | 1009.0 |
| 20260507011445 | 83 | 254 | 0.0 | 2.0 | 0.00 | 0.00 | 0.00 | 82 | 1008.9 |
| 20260507010714 | 83 | 252 | 0.0 | 2.0 | 0.00 | 0.00 | 0.00 | 82 | 1008.9 |
| 20260507010211 | 83 | 152 | 0.0 | 2.0 | 0.00 | 0.00 | 0.00 | 82 | 1008.8 |
| 20260507005710 | 83 | 152 | 0.0 | 2.0 | 0.00 | 0.00 | 0.00 | 82 | 1008.6 |
| 20260507005444 | 83 | 153 | 1.0 | 3.0 | 0.00 | 0.00 | 0.00 | 82 | 1008.4 |
| 20260507004711 | 83 | 153 | 1.0 | 4.0 | 0.00 | 0.00 | 0.00 | 82 | 1008.4 |
| 20260507004205 | 84 | 117 | 0.0 | 4.0 | 0.00 | 0.00 | 0.00 | 81 | 1008.4 |
| 20260507003703 | 84 | 151 | 1.0 | 4.0 | 0.00 | 0.00 | 0.00 | 81 | 1008.3 |
| 20260507003206 | 84 | 151 | 2.0 | 5.0 | 0.00 | 0.00 | 0.00 | 81 | 1008.2 |
| 20260507002701 | 84 | 138 | 2.0 | 5.0 | 0.00 | 0.00 | 0.00 | 81 | 1008.1 |
| 20260507002204 | 84 | 144 | 1.0 | 4.0 | 0.00 | 0.00 | 0.00 | 81 | 1008.2 |
| 20260507001701 | 84 | 188 | 1.0 | 4.0 | 0.00 | 0.00 | 0.00 | 81 | 1008.3 |
| 20260507001156 | 84 | 145 | 1.0 | 4.0 | 0.00 | 0.00 | 0.00 | 81 | 1008.2 |
| 20260507000651 | 84 | 146 | 1.0 | 5.0 | 0.00 | 0.00 | 0.00 | 81 | 1008.1 |
| 20260507000149 | 84 | 146 | 2.0 | 5.0 | 0.00 | 0.00 | 0.00 | 81 | 1008.0 |
| 20260506235923 | 84 | 113 | 2.0 | 5.0 | 0.00 | 0.00 | 0.00 | 81 | 1008.0 |
| 20260506235419 | 84 | 142 | 2.0 | 8.0 | 0.00 | 0.00 | 0.00 | 81 | 1008.1 |
| 20260506234644 | 84 | 127 | 2.0 | 8.0 | 0.00 | 0.00 | 0.00 | 81 | 1008.1 |
| 20260506234416 | 85 | 152 | 1.0 | 6.0 | 0.00 | 0.00 | 0.00 | 81 | 1008.1 |
| 20260506233645 | 85 | 188 | 1.0 | 6.0 | 0.00 | 0.00 | 0.00 | 81 | 1008.1 |
| 20260506233146 | 85 | 115 | 1.0 | 6.0 | 0.00 | 0.00 | 0.00 | 80 | 1007.9 |
| 20260506232645 | 85 | 113 | 1.0 | 7.0 | 0.00 | 0.00 | 0.00 | 80 | 1007.9 |
| 20260506232141 | 85 | 117 | 2.0 | 7.0 | 0.00 | 0.00 | 0.00 | 80 | 1007.9 |
| 20260506231640 | 85 | 153 | 3.0 | 8.0 | 0.00 | 0.00 | 0.00 | 80 | 1007.8 |
| 20260506231141 | 85 | 185 | 2.0 | 8.0 | 0.00 | 0.00 | 0.00 | 80 | 1007.8 |
| 20260506230637 | 85 | 103 | 1.0 | 6.0 | 0.00 | 0.00 | 0.00 | 80 | 1007.7 |
| 20260506230134 | 85 | 119 | 1.0 | 6.0 | 0.00 | 0.00 | 0.00 | 80 | 1007.7 |
| 20260506225637 | 85 | 156 | 2.0 | 6.0 | 0.00 | 0.00 | 0.00 | 80 | 1007.7 |
| 20260506225632 | 85 | 120 | 1.0 | 7.0 | 0.00 | 0.00 | 0.00 | 81 | 1007.8 |
| 20260506224904 | 85 | 161 | 2.0 | 7.0 | 0.00 | 0.00 | 0.00 | 81 | 1007.7 |
| 20260506224126 | 85 | 137 | 2.0 | 6.0 | 0.00 | 0.00 | 0.00 | 81 | 1007.7 |
| 20260506223628 | 85 | 123 | 2.0 | 7.0 | 0.00 | 0.00 | 0.00 | 80 | 1007.6 |
| 20260506223123 | 85 | 178 | 2.0 | 7.0 | 0.00 | 0.00 | 0.00 | 80 | 1007.6 |
| 20260506222623 | 85 | 89 | 1.0 | 6.0 | 0.00 | 0.00 | 0.00 | 80 | 1007.5 |
| 20260506222123 | 85 | 104 | 1.0 | 5.0 | 0.00 | 0.00 | 0.00 | 80 | 1007.5 |
| 20260506221624 | 85 | 271 | 1.0 | 5.0 | 0.00 | 0.00 | 0.00 | 80 | 1007.5 |
| 20260506221123 | 86 | 159 | 1.0 | 6.0 | 0.00 | 0.00 | 0.00 | 79 | 1007.5 |
| 20260506220850 | 86 | 178 | 1.0 | 7.0 | 0.00 | 0.00 | 0.00 | 78 | 1007.5 |
| 20260506220735 | 86 | 166 | 2.0 | 9.0 | 0.00 | 0.00 | 0.00 | 79 | 1007.5 |
| 20260506215627 | 86 | 171 | 3.0 | 9.0 | 0.00 | 0.00 | 0.00 | 79 | 1007.4 |
| 20260506215622 | 86 | 163 | 2.0 | 9.0 | 0.00 | 0.00 | 0.00 | 79 | 1007.5 |
| 20260506214621 | 85 | 146 | 3.0 | 9.0 | 0.00 | 0.00 | 0.00 | 80 | 1007.3 |
| 20260506214120 | 86 | 104 | 2.0 | 7.0 | 0.00 | 0.00 | 0.00 | 78 | 1007.4 |
| 20260506213618 | 86 | 148 | 2.0 | 7.0 | 0.00 | 0.00 | 0.00 | 78 | 1007.5 |
| 20260506213349 | 85 | 138 | 2.0 | 7.0 | 0.00 | 0.00 | 0.00 | 78 | 1007.6 |
| 20260506212617 | 86 | 142 | 2.0 | 7.0 | 0.00 | 0.00 | 0.00 | 79 | 1007.6 |
| 20260506212346 | 86 | 203 | 2.0 | 7.0 | 0.00 | 0.00 | 0.00 | 78 | 1007.6 |
| 20260506211616 | 86 | 159 | 2.0 | 7.0 | 0.00 | 0.00 | 0.00 | 78 | 1007.6 |
| 20260506211115 | 86 | 219 | 2.0 | 8.0 | 0.00 | 0.00 | 0.00 | 77 | 1007.7 |
| 20260506210612 | 85 | 147 | 2.0 | 8.0 | 0.00 | 0.00 | 0.00 | 78 | 1007.8 |
| 20260506210113 | 86 | 184 | 2.0 | 9.0 | 0.00 | 0.00 | 0.00 | 79 | 1007.8 |
| 20260506205611 | 86 | 105 | 2.0 | 9.0 | 0.00 | 0.00 | 0.00 | 78 | 1007.8 |
| 20260506205113 | 86 | 246 | 3.0 | 9.0 | 0.00 | 0.00 | 0.00 | 79 | 1007.9 |
| 20260506204610 | 86 | 149 | 3.0 | 9.0 | 0.00 | 0.00 | 0.00 | 79 | 1007.9 |
| 20260506204108 | 86 | 240 | 2.0 | 8.0 | 0.00 | 0.00 | 0.00 | 81 | 1008.0 |
| 20260506203613 | 85 | 109 | 3.0 | 8.0 | 0.00 | 0.00 | 0.00 | 79 | 1008.0 |
| 20260506203609 | 85 | 198 | 2.0 | 8.0 | 0.00 | 0.00 | 0.00 | 80 | 1008.0 |
| 20260506202608 | 85 | 44 | 2.0 | 8.0 | 0.00 | 0.00 | 0.00 | 81 | 1008.0 |
| 20260506202108 | 84 | 163 | 2.0 | 8.0 | 0.00 | 0.00 | 0.00 | 81 | 1008.0 |
| 20260506201609 | 83 | 160 | 2.0 | 8.0 | 0.00 | 0.00 | 0.00 | 83 | 1008.1 |
| 20260506201112 | 83 | 198 | 2.0 | 8.0 | 0.00 | 0.00 | 0.00 | 83 | 1008.2 |
| 20260506200839 | 83 | 132 | 1.0 | 6.0 | 0.00 | 0.00 | 0.00 | 83 | 1008.2 |
| 20260506200109 | 84 | 126 | 2.0 | 6.0 | 0.00 | 0.00 | 0.00 | 83 | 1008.3 |
| 20260506195840 | 84 | 135 | 2.0 | 6.0 | 0.00 | 0.00 | 0.00 | 81 | 1008.3 |
| 20260506195111 | 85 | 178 | 2.0 | 6.0 | 0.00 | 0.00 | 0.00 | 80 | 1008.3 |
| 20260506194608 | 85 | 136 | 2.0 | 8.0 | 0.00 | 0.00 | 0.00 | 80 | 1008.4 |
| 20260506194109 | 85 | 297 | 3.0 | 8.0 | 0.00 | 0.00 | 0.00 | 79 | 1008.3 |
| 20260506193608 | 85 | 143 | 3.0 | 7.0 | 0.00 | 0.00 | 0.00 | 79 | 1008.3 |
| 20260506193109 | 85 | 167 | 2.0 | 7.0 | 0.00 | 0.00 | 0.00 | 81 | 1008.3 |
| 20260506192606 | 85 | 159 | 1.0 | 6.0 | 0.00 | 0.00 | 0.00 | 81 | 1008.5 |
| 20260506192107 | 85 | 165 | 2.0 | 6.0 | 0.00 | 0.00 | 0.00 | 81 | 1008.5 |
| 20260506191605 | 85 | 151 | 1.0 | 5.0 | 0.00 | 0.00 | 0.00 | 81 | 1008.7 |
| 20260506191338 | 85 | 183 | 1.0 | 5.0 | 0.00 | 0.00 | 0.00 | 81 | 1008.7 |
| 20260506190606 | 84 | 171 | 2.0 | 5.0 | 0.00 | 0.00 | 0.00 | 81 | 1008.7 |
| 20260506190106 | 84 | 164 | 1.0 | 7.0 | 0.00 | 0.00 | 0.00 | 81 | 1008.8 |
| 20260506185836 | 84 | 242 | 1.0 | 7.0 | 0.00 | 0.00 | 0.00 | 83 | 1008.9 |
| 20260506185104 | 84 | 149 | 1.0 | 7.0 | 0.00 | 0.00 | 0.00 | 83 | 1008.9 |
| 20260506184605 | 83 | 132 | 1.0 | 7.0 | 0.00 | 0.00 | 0.00 | 83 | 1009.0 |
| 20260506184334 | 83 | 113 | 1.0 | 4.0 | 0.00 | 0.00 | 0.00 | 82 | 1009.0 |
| 20260506183606 | 83 | 113 | 1.0 | 7.0 | 0.00 | 0.00 | 0.00 | 83 | 1009.1 |
| 20260506183105 | 83 | 146 | 1.0 | 7.0 | 0.00 | 0.00 | 0.00 | 84 | 1009.2 |
| 20260506182834 | 83 | 128 | 1.0 | 5.0 | 0.00 | 0.00 | 0.00 | 85 | 1009.2 |
| 20260506182107 | 82 | 128 | 2.0 | 7.0 | 0.00 | 0.00 | 0.00 | 84 | 1009.4 |
| 20260506181603 | 82 | 142 | 1.0 | 7.0 | 0.00 | 0.00 | 0.00 | 85 | 1009.6 |
| 20260506181100 | 82 | 163 | 1.0 | 4.0 | 0.00 | 0.00 | 0.00 | 86 | 1009.6 |
| 20260506180604 | 82 | 159 | 1.0 | 4.0 | 0.00 | 0.00 | 0.00 | 86 | 1009.7 |
| 20260506175601 | 82 | 220 | 0.0 | 3.0 | 0.00 | 0.00 | 0.00 | 87 | 1009.9 |
| 20260506175058 | 82 | 221 | 1.0 | 6.0 | 0.00 | 0.00 | 0.00 | 87 | 1010.0 |
| 20260506174558 | 81 | 152 | 1.0 | 6.0 | 0.00 | 0.00 | 0.00 | 88 | 1010.0 |
| 20260506174057 | 81 | 136 | 0.0 | 5.0 | 0.00 | 0.00 | 0.00 | 88 | 1010.1 |
| 20260506173834 | 81 | 131 | 0.0 | 2.0 | 0.00 | 0.00 | 0.00 | 88 | 1010.2 |
| 20260506173058 | 81 | 135 | 0.0 | 2.0 | 0.00 | 0.00 | 0.00 | 88 | 1010.2 |
| 20260506172558 | 81 | 136 | 0.0 | 2.0 | 0.00 | 0.00 | 0.00 | 88 | 1010.3 |
| 20260506172101 | 81 | 125 | 1.0 | 2.0 | 0.00 | 0.00 | 0.00 | 88 | 1010.3 |
| 20260506171555 | 81 | 125 | 0.0 | 2.0 | 0.00 | 0.00 | 0.00 | 88 | 1010.4 |
| 20260506171057 | 81 | 125 | 0.0 | 1.0 | 0.00 | 0.00 | 0.00 | 88 | 1010.5 |
| 20260506170556 | 80 | 125 | 0.0 | 2.0 | 0.00 | 0.00 | 0.00 | 87 | 1010.5 |
| 20260506170056 | 80 | 125 | 0.0 | 4.0 | 0.00 | 0.00 | 0.00 | 87 | 1010.5 |
| 20260506165555 | 80 | 126 | 0.0 | 4.0 | 0.00 | 0.00 | 0.00 | 87 | 1010.6 |
| 20260506165053 | 80 | 126 | 1.0 | 4.0 | 0.00 | 0.00 | 0.00 | 87 | 1010.6 |
| 20260506164552 | 80 | 137 | 1.0 | 5.0 | 0.00 | 0.00 | 0.00 | 87 | 1010.4 |
| 20260506164053 | 80 | 186 | 1.0 | 5.0 | 0.00 | 0.00 | 0.00 | 87 | 1010.4 |
| 20260506163553 | 80 | 120 | 1.0 | 5.0 | 0.00 | 0.00 | 0.00 | 87 | 1010.5 |
| 20260506163049 | 80 | 176 | 2.0 | 6.0 | 0.00 | 0.00 | 0.00 | 87 | 1010.3 |
| 20260506162547 | 80 | 121 | 2.0 | 6.0 | 0.00 | 0.00 | 0.00 | 87 | 1010.3 |
| 20260506162047 | 80 | 152 | 2.0 | 6.0 | 0.00 | 0.00 | 0.00 | 87 | 1010.3 |
| 20260506161547 | 80 | 138 | 2.0 | 5.0 | 0.00 | 0.00 | 0.00 | 87 | 1010.2 |
| 20260506161046 | 80 | 127 | 2.0 | 6.0 | 0.00 | 0.00 | 0.00 | 87 | 1010.3 |
| 20260506160547 | 80 | 151 | 3.0 | 7.0 | 0.00 | 0.00 | 0.00 | 87 | 1010.2 |
| 20260506160042 | 80 | 135 | 2.0 | 7.0 | 0.00 | 0.00 | 0.00 | 87 | 1010.1 |
| 20260506155813 | 80 | 167 | 1.0 | 6.0 | 0.00 | 0.00 | 0.00 | 87 | 1010.2 |
| 20260506155043 | 80 | 195 | 1.0 | 4.0 | 0.00 | 0.00 | 0.00 | 88 | 1010.1 |
| 20260506154542 | 80 | 140 | 2.0 | 5.0 | 0.00 | 0.00 | 0.00 | 88 | 1010.1 |
| 20260506154042 | 80 | 144 | 1.0 | 5.0 | 0.00 | 0.00 | 0.00 | 88 | 1010.1 |
| 20260506153539 | 80 | 117 | 1.0 | 6.0 | 0.00 | 0.00 | 0.00 | 88 | 1010.1 |
| 20260506153038 | 80 | 182 | 1.0 | 6.0 | 0.00 | 0.00 | 0.00 | 88 | 1010.1 |
| 20260506152536 | 79 | 121 | 2.0 | 6.0 | 0.00 | 0.00 | 0.00 | 88 | 1009.8 |
| 20260506152310 | 79 | 103 | 2.0 | 6.0 | 0.00 | 0.00 | 0.00 | 88 | 1009.6 |
| 20260506151805 | 79 | 155 | 1.0 | 5.0 | 0.00 | 0.00 | 0.00 | 88 | 1009.6 |
| 20260506151303 | 79 | 151 | 1.0 | 5.0 | 0.00 | 0.00 | 0.00 | 88 | 1009.6 |
| 20260506150535 | 79 | 147 | 1.0 | 7.0 | 0.00 | 0.00 | 0.00 | 88 | 1009.6 |
| 20260506150030 | 79 | 169 | 1.0 | 7.0 | 0.00 | 0.00 | 0.00 | 88 | 1009.6 |
| 20260506145529 | 79 | 169 | 1.0 | 6.0 | 0.00 | 0.00 | 0.00 | 89 | 1009.5 |
| 20260506145306 | 79 | 146 | 1.0 | 4.0 | 0.00 | 0.00 | 0.00 | 89 | 1009.1 |
| 20260506145029 | 79 | 152 | 1.0 | 5.0 | 0.00 | 0.00 | 0.00 | 89 | 1009.4 |
| 20260506144029 | 79 | 148 | 1.0 | 6.0 | 0.00 | 0.00 | 0.00 | 89 | 1009.1 |
| 20260506143527 | 79 | 150 | 1.0 | 9.0 | 0.00 | 0.00 | 0.00 | 89 | 1008.9 |
| 20260506143258 | 79 | 139 | 1.0 | 9.0 | 0.00 | 0.00 | 0.00 | 89 | 1009.0 |
| 20260506142525 | 79 | 123 | 2.0 | 9.0 | 0.00 | 0.00 | 0.00 | 89 | 1009.0 |